This demonstration page uses our WeatherBlox Daily Observations layout. Learn more.

Left ArrowRight Arrow

53.62937, 11.41316

Hourly Observations for January 9, 2018

Temp ( °F °C ) Dew Point ( °F °C ) Humidity (%) Winds ( mph kmh ) Pressure ( in mb ) Visibility ( mi km ) Precip ( " mm )
7:50 am 07:50 Mostly Clear 34 1 10 -12 38 38 E 18 30 30.18 1022 7 11 N/A
8:20 am 08:20 Mostly Clear 34 1 10 -12 38 38 E 18 30 30.18 1022 7 11 N/A
8:50 am 08:50 Mostly Sunny 36 2 10 -12 35 35 E 18 30 30.15 1021 7 11 N/A
9:20 am 09:20 Mostly Sunny 36 2 9 -13 32 32 E 22 35 30.15 1021 7 11 N/A
9:50 am 09:50 Mostly Sunny 36 2 10 -12 35 35 E 23 37 30.12 1020 7 11 N/A
10:20 am 10:20 Mostly Sunny 36 2 12 -11 38 38 E 22 35 30.12 1020 7 11 N/A
10:50 am 10:50 Mostly Sunny 37 3 14 -10 38 38 E 20 31 30.12 1020 7 11 N/A
11:20 am 11:20 Mostly Sunny 37 3 16 -9 41 41 E 17 28 30.12 1020 7 11 N/A
11:50 am 11:50 Mostly Cloudy 37 3 19 -7 48 48 E 16 26 30.09 1019 30 48 N/A
12:20 pm 12:20 Mostly Cloudy 37 3 19 -7 48 48 E 15 24 30.06 1018 30 48 N/A
12:50 pm 12:50 Mostly Cloudy 37 3 19 -7 48 48 E 17 28 30.06 1018 30 48 N/A
1:20 pm 13:20 Cloudy 37 3 21 -6 52 52 E 15 24 30.03 1017 30 48 N/A
1:50 pm 13:50 Cloudy 39 4 23 -5 52 52 E 12 19 30.00 1016 30 48 N/A
2:20 pm 14:20 Cloudy 39 4 23 -5 52 52 E 12 19 30.00 1016 30 48 N/A
2:50 pm 14:50 Cloudy 39 4 25 -4 56 56 E 12 19 29.97 1015 30 48 N/A
3:20 pm 15:20 Cloudy 39 4 25 -4 56 56 E 13 20 29.97 1015 30 48 N/A
3:50 pm 15:50 Cloudy 39 4 25 -4 56 56 E 14 22 29.97 1015 30 48 N/A
4:20 pm 16:20 Cloudy 39 4 25 -4 56 56 E 13 20 29.97 1015 30 48 N/A
4:50 pm 16:50 Mostly Cloudy 39 4 25 -4 56 56 E 14 22 29.97 1015 30 48 N/A
5:20 pm 17:20 Mostly Cloudy 39 4 25 -4 56 56 E 15 24 29.94 1014 30 48 N/A
5:50 pm 17:50 Partly Cloudy 39 4 25 -4 56 56 E 13 20 29.94 1014 30 48 N/A

Powered by AerisWeather